• En España
  • Lista de países
  • Para 7 días
  • Temperatura del agua
  • Mapa Satelital
  • El tiempo en el mapa
  • Informadores
  • user-avatar
    Iniciar sesión

    Tiempo cada hora Tuktamysh

    Hoy, 22 Octubre, Lunes

    Tiempo Temperatura Precipitaciones Viento Presión Humedad
    00:00 +1°C° 0 mm 0 mps 759 mmHg 85%
    01:00 +1°C° 0 mm 0 mps 759 mmHg 86%
    02:00 +1°C° 0 mm 0 mps 759 mmHg 87%
    03:00 0°C° 0 mm 0 mps 759 mmHg 89%
    04:00 +1°C° 0 mm 1 mps 759 mmHg 90%
    05:00 +1°C° 0 mm 1 mps 759 mmHg 90%
    06:00 +1°C° 0 mm 1 mps 759 mmHg 91%
    07:00 +1°C° 0 mm 2 mps 759 mmHg 87%
    08:00 +2°C° 0 mm 2 mps 759 mmHg 83%
    09:00 +2°C° 0 mm 3 mps 759 mmHg 78%
    10:00 +3°C° 0 mm 3 mps 758 mmHg 75%
    11:00 +4°C° 0 mm 4 mps 758 mmHg 71%
    12:00 +5°C° 0 mm 4 mps 757 mmHg 67%
    13:00 +5°C° 0 mm 4 mps 757 mmHg 68%
    14:00 +5°C° 0 mm 4 mps 756 mmHg 68%
    15:00 +5°C° 0 mm 4 mps 756 mmHg 69%
    16:00 +4°C° 0 mm 4 mps 755 mmHg 72%
    17:00 +4°C° 0 mm 4 mps 755 mmHg 76%
    18:00 +2°C° 0 mm 5 mps 754 mmHg 79%
    19:00 +2°C° 0 mm 5 mps 754 mmHg 80%
    20:00 +2°C° 0 mm 5 mps 753 mmHg 80%
    21:00 +2°C° 0 mm 5 mps 753 mmHg 80%
    22:00 +2°C° 0 mm 5 mps 752 mmHg 82%
    23:00 +2°C° 0 mm 5 mps 752 mmHg 83%

    Mañana, 23 Octubre, Martes

    Tiempo Temperatura Precipitaciones Viento Presión Humedad
    00:00 +2°C° 0 mm 5 mps 751 mmHg 85%
    01:00 +2°C° 0 mm 5 mps 751 mmHg 87%
    02:00 +2°C° 0 mm 5 mps 751 mmHg 89%
    03:00 +2°C° 0 mm 5 mps 750 mmHg 92%
    04:00 +3°C° 0 mm 5 mps 750 mmHg 91%
    05:00 +5°C° 0 mm 5 mps 749 mmHg 89%
    06:00 +5°C° 0 mm 5 mps 748 mmHg 88%
    07:00 +5°C° 0.2 mm 6 mps 748 mmHg 85%
    08:00 +5°C° 0.2 mm 6 mps 747 mmHg 83%
    09:00 +5°C° 0.2 mm 7 mps 747 mmHg 80%
    10:00 +5°C° 0.3 mm 7 mps 747 mmHg 80%
    11:00 +5°C° 0.3 mm 7 mps 746 mmHg 79%
    12:00 +6°C° 0.3 mm 7 mps 745 mmHg 79%
    13:00 +6°C° 0.6 mm 7 mps 745 mmHg 81%
    14:00 +6°C° 0.6 mm 7 mps 744 mmHg 82%
    15:00 +6°C° 0.6 mm 7 mps 744 mmHg 84%
    16:00 +6°C° 0.6 mm 8 mps 743 mmHg 84%
    17:00 +5°C° 0.6 mm 8 mps 743 mmHg 84%
    18:00 +5°C° 0.6 mm 8 mps 742 mmHg 84%
    19:00 +5°C° 0.5 mm 7 mps 742 mmHg 85%
    20:00 +5°C° 0.5 mm 7 mps 742 mmHg 85%
    21:00 +5°C° 0.5 mm 7 mps 741 mmHg 86%
    22:00 +5°C° 0.4 mm 6 mps 741 mmHg 88%
    23:00 +6°C° 0.4 mm 5 mps 741 mmHg 90%

    Pasado mañana, 24 Octubre, Miércoles

    Tiempo Temperatura Precipitaciones Viento Presión Humedad
    00:00 +6°C° 0.4 mm 4 mps 741 mmHg 92%
    01:00 +6°C° 0 mm 4 mps 740 mmHg 93%
    02:00 +5°C° 0 mm 3 mps 740 mmHg 94%
    03:00 +5°C° 0 mm 3 mps 740 mmHg 96%
    04:00 +4°C° 0 mm 3 mps 740 mmHg 95%
    05:00 +5°C° 0 mm 2 mps 740 mmHg 95%
    06:00 +4°C° 0 mm 2 mps 740 mmHg 95%
    07:00 +4°C° 0 mm 3 mps 740 mmHg 91%
    08:00 +5°C° 0 mm 3 mps 739 mmHg 87%
    09:00 +5°C° 0 mm 4 mps 739 mmHg 83%
    10:00 +6°C° 0 mm 4 mps 739 mmHg 78%
    11:00 +7°C° 0 mm 4 mps 739 mmHg 73%
    12:00 +8°C° 0 mm 5 mps 739 mmHg 68%
    13:00 +8°C° 0 mm 4 mps 739 mmHg 68%
    14:00 +8°C° 0 mm 4 mps 739 mmHg 68%
    15:00 +7°C° 0 mm 4 mps 738 mmHg 68%
    16:00 +7°C° 0 mm 4 mps 739 mmHg 70%
    17:00 +6°C° 0 mm 4 mps 739 mmHg 73%
    18:00 +6°C° 0 mm 4 mps 739 mmHg 75%
    19:00 +6°C° 0 mm 4 mps 739 mmHg 76%
    20:00 +6°C° 0 mm 4 mps 739 mmHg 76%
    21:00 +6°C° 0 mm 4 mps 739 mmHg 77%
    22:00 +6°C° 0.2 mm 4 mps 739 mmHg 78%
    23:00 +5°C° 0.2 mm 4 mps 739 mmHg 79%

    25 Octubre, Jueves

    Tiempo Temperatura Precipitaciones Viento Presión Humedad
    00:00 +5°C° 0.2 mm 4 mps 739 mmHg 81%
    01:00 +5°C° 0.4 mm 4 mps 739 mmHg 82%
    02:00 +5°C° 0.4 mm 5 mps 739 mmHg 82%
    03:00 +5°C° 0.4 mm 5 mps 738 mmHg 83%
    04:00 +6°C° 0.5 mm 5 mps 738 mmHg 85%
    05:00 +5°C° 0.5 mm 6 mps 738 mmHg 86%
    06:00 +5°C° 0.5 mm 6 mps 737 mmHg 88%
    07:00 +7°C° 1 mm 6 mps 737 mmHg 89%
    08:00 +7°C° 1 mm 6 mps 737 mmHg 91%
    09:00 +7°C° 1 mm 6 mps 737 mmHg 93%
    10:00 +8°C° 0.9 mm 7 mps 736 mmHg 91%
    11:00 +9°C° 0.9 mm 7 mps 736 mmHg 90%
    12:00 +9°C° 0.9 mm 8 mps 735 mmHg 88%
    13:00 +9°C° 0.5 mm 7 mps 735 mmHg 87%
    14:00 +9°C° 0.5 mm 7 mps 734 mmHg 85%
    15:00 +9°C° 0.5 mm 7 mps 734 mmHg 84%
    16:00 +9°C° 0.4 mm 7 mps 734 mmHg 82%
    17:00 +9°C° 0.4 mm 7 mps 733 mmHg 80%
    18:00 +9°C° 0.4 mm 7 mps 733 mmHg 78%
    19:00 +9°C° 0.8 mm 7 mps 733 mmHg 80%
    20:00 +9°C° 0.8 mm 7 mps 732 mmHg 82%
    21:00 +9°C° 0.8 mm 7 mps 732 mmHg 84%
    22:00 +9°C° 0.9 mm 6 mps 732 mmHg 85%
    23:00 +9°C° 0.9 mm 5 mps 732 mmHg 86%

    26 Octubre, Viernes

    Tiempo Temperatura Precipitaciones Viento Presión Humedad
    00:00 +8°C° 0.9 mm 4 mps 732 mmHg 87%
    01:00 +7°C° 0.4 mm 4 mps 732 mmHg 85%
    02:00 +7°C° 0.4 mm 4 mps 732 mmHg 82%
    03:00 +6°C° 0.4 mm 4 mps 732 mmHg 79%
    04:00 +6°C° 0.1 mm 4 mps 732 mmHg 80%
    05:00 +5°C° 0.1 mm 5 mps 732 mmHg 80%
    06:00 +5°C° 0.1 mm 5 mps 732 mmHg 81%
    07:00 +5°C° 0 mm 5 mps 732 mmHg 80%
    08:00 +5°C° 0 mm 5 mps 733 mmHg 79%
    09:00 +4°C° 0 mm 6 mps 733 mmHg 77%
    10:00 +4°C° 0 mm 6 mps 733 mmHg 75%
    11:00 +5°C° 0 mm 6 mps 733 mmHg 72%
    12:00 +5°C° 0 mm 7 mps 733 mmHg 70%
    13:00 +5°C° 0 mm 6 mps 733 mmHg 69%
    14:00 +5°C° 0 mm 6 mps 734 mmHg 69%
    15:00 +4°C° 0 mm 6 mps 734 mmHg 69%
    16:00 +4°C° 0 mm 6 mps 734 mmHg 71%
    17:00 +3°C° 0 mm 6 mps 734 mmHg 74%
    18:00 +3°C° 0 mm 5 mps 735 mmHg 77%
    19:00 +2°C° 0 mm 5 mps 735 mmHg 79%
    20:00 +2°C° 0 mm 5 mps 735 mmHg 81%
    21:00 +2°C° 0 mm 5 mps 736 mmHg 82%
    22:00 +2°C° 0 mm 5 mps 736 mmHg 84%
    23:00 +1°C° 0 mm 4 mps 736 mmHg 85%

    27 Octubre, Sábado

    Tiempo Temperatura Precipitaciones Viento Presión Humedad
    00:00 +1°C° 0 mm 4 mps 737 mmHg 86%
    01:00 +1°C° 0 mm 4 mps 737 mmHg 85%
    02:00 +1°C° 0 mm 4 mps 738 mmHg 85%
    03:00 0°C° 0 mm 5 mps 738 mmHg 84%
    04:00 0°C° 0 mm 5 mps 739 mmHg 84%
    05:00 0°C° 0 mm 5 mps 739 mmHg 85%
    06:00 -1°C° 0 mm 5 mps 740 mmHg 85%
    07:00 -1°C° 0 mm 5 mps 740 mmHg 83%
    08:00 -2°C° 0 mm 6 mps 741 mmHg 81%
    09:00 -2°C° 0 mm 6 mps 742 mmHg 79%
    10:00 -1°C° 0 mm 6 mps 742 mmHg 76%
    11:00 -1°C° 0 mm 6 mps 743 mmHg 73%
    12:00 -1°C° 0 mm 6 mps 743 mmHg 71%
    13:00 -1°C° 0 mm 6 mps 744 mmHg 70%
    14:00 +1°C° 0 mm 6 mps 744 mmHg 69%
    15:00 +1°C° 0 mm 6 mps 745 mmHg 68%
    16:00 -1°C° 0 mm 6 mps 746 mmHg 69%
    17:00 -1°C° 0 mm 6 mps 746 mmHg 71%
    18:00 0°C° 0 mm 5 mps 747 mmHg 72%
    19:00 0°C° 0 mm 5 mps 747 mmHg 73%
    20:00 0°C° 0 mm 5 mps 748 mmHg 73%
    21:00 0°C° 0 mm 5 mps 748 mmHg 74%
    22:00 -1°C° 0 mm 4 mps 749 mmHg 77%
    23:00 -1°C° 0 mm 4 mps 749 mmHg 80%

    28 Octubre, Domingo

    Tiempo Temperatura Precipitaciones Viento Presión Humedad
    00:00 -2°C° 0 mm 4 mps 749 mmHg 83%
    01:00 -1°C° 0 mm 4 mps 749 mmHg 83%
    02:00 -1°C° 0 mm 4 mps 749 mmHg 83%
    03:00 0°C° 0 mm 4 mps 750 mmHg 83%
    04:00 0°C° 0.1 mm 5 mps 749 mmHg 84%
    05:00 0°C° 0.1 mm 5 mps 749 mmHg 85%
    06:00 0°C° 0.1 mm 5 mps 749 mmHg 86%
    07:00 +1°C° 0.2 mm 6 mps 748 mmHg 85%
    08:00 0°C° 0.2 mm 7 mps 748 mmHg 84%
    09:00 +2°C° 0.2 mm 7 mps 748 mmHg 83%
    10:00 +3°C° 0.1 mm 7 mps 748 mmHg 83%
    11:00 +3°C° 0.1 mm 7 mps 748 mmHg 82%
    12:00 +4°C° 0.1 mm 7 mps 748 mmHg 81%
    13:00 +4°C° 0.3 mm 6 mps 748 mmHg 83%
    14:00 +4°C° 0.3 mm 6 mps 749 mmHg 86%
    15:00 +6°C° 0.3 mm 5 mps 749 mmHg 88%
    16:00 +5°C° 0.2 mm 5 mps 749 mmHg 90%
    17:00 +5°C° 0.2 mm 4 mps 749 mmHg 91%
    18:00 +5°C° 0.2 mm 4 mps 749 mmHg 93%
    19:00 +5°C° 0.2 mm 3 mps 749 mmHg 94%
    20:00 +5°C° 0.2 mm 3 mps 749 mmHg 95%
    21:00 +6°C° 0.2 mm 2 mps 750 mmHg 96%
    22:00 +6°C° 0.6 mm 2 mps 750 mmHg 97%
    23:00 +7°C° 0.6 mm 1 mps 750 mmHg 97%
    Mostrar más